• In Belarus
  • List of Countries
  • For 7 days
  • Water Temperature
  • Satellite Maps
  • Weather Map
  • Weather Widgets
  • user-avatar
    Login

    Hourly Weather Kananga

    Today, 19 December, Wednesday

    Time Temperature Precipitation Wind Pressure Humidity
    00:00 +25°C° 0 mm 1 mps 705 mmHg 26%
    01:00 +24°C° 0 mm 2 mps 705 mmHg 27%
    02:00 +23°C° 0 mm 2 mps 705 mmHg 27%
    03:00 +23°C° 0 mm 2 mps 705 mmHg 26%
    04:00 +22°C° 0 mm 1 mps 705 mmHg 26%
    05:00 +23°C° 0 mm 1 mps 706 mmHg 25%
    06:00 +24°C° 0 mm 1 mps 706 mmHg 24%
    07:00 +25°C° 0 mm 1 mps 707 mmHg 21%
    08:00 +29°C° 0 mm 1 mps 707 mmHg 18%
    09:00 +32°C° 0 mm 2 mps 707 mmHg 15%
    10:00 +37°C° 0 mm 2 mps 707 mmHg 12%
    11:00 +38°C° 0 mm 2 mps 707 mmHg 11%
    12:00 +40°C° 0 mm 2 mps 706 mmHg 11%
    13:00 +41°C° 0 mm 2 mps 705 mmHg 10%
    14:00 +40°C° 0 mm 2 mps 705 mmHg 11%
    15:00 +40°C° 0 mm 2 mps 704 mmHg 11%
    16:00 +39°C° 0 mm 2 mps 703 mmHg 11%
    17:00 +35°C° 0 mm 1 mps 703 mmHg 15%
    18:00 +32°C° 0 mm 1 mps 703 mmHg 18%
    19:00 +29°C° 0 mm 1 mps 703 mmHg 21%
    20:00 +28°C° 0 mm 1 mps 704 mmHg 22%
    21:00 +27°C° 0 mm 1 mps 704 mmHg 23%
    22:00 +26°C° 0 mm 1 mps 704 mmHg 24%
    23:00 +25°C° 0 mm 1 mps 704 mmHg 25%

    Tomorrow, 20 December, Thursday

    Time Temperature Precipitation Wind Pressure Humidity
    00:00 +25°C° 0 mm 1 mps 704 mmHg 26%
    01:00 +24°C° 0 mm 1 mps 704 mmHg 27%
    02:00 +23°C° 0 mm 1 mps 704 mmHg 28%
    03:00 +22°C° 0 mm 1 mps 704 mmHg 29%
    04:00 +21°C° 0 mm 1 mps 704 mmHg 30%
    05:00 +22°C° 0 mm 1 mps 705 mmHg 28%
    06:00 +24°C° 0 mm 1 mps 705 mmHg 26%
    07:00 +25°C° 0 mm 1 mps 706 mmHg 24%
    08:00 +28°C° 0 mm 1 mps 706 mmHg 20%
    09:00 +32°C° 0 mm 2 mps 706 mmHg 16%
    10:00 +36°C° 0 mm 2 mps 707 mmHg 12%
    11:00 +38°C° 0 mm 2 mps 706 mmHg 11%
    12:00 +40°C° 0 mm 2 mps 705 mmHg 10%
    13:00 +42°C° 0 mm 1 mps 705 mmHg 10%
    14:00 +41°C° 0 mm 1 mps 704 mmHg 10%
    15:00 +40°C° 0 mm 1 mps 703 mmHg 10%
    16:00 +40°C° 0 mm 1 mps 703 mmHg 11%
    17:00 +35°C° 0 mm 1 mps 703 mmHg 14%
    18:00 +32°C° 0 mm 1 mps 703 mmHg 17%
    19:00 +28°C° 0 mm 1 mps 703 mmHg 20%
    20:00 +27°C° 0 mm 1 mps 704 mmHg 21%
    21:00 +27°C° 0 mm 1 mps 704 mmHg 22%
    22:00 +26°C° 0 mm 1 mps 704 mmHg 23%
    23:00 +25°C° 0 mm 1 mps 704 mmHg 24%

    Day after tomorrow, 21 December, Friday

    Time Temperature Precipitation Wind Pressure Humidity
    00:00 +24°C° 0 mm 1 mps 704 mmHg 25%
    01:00 +24°C° 0 mm 1 mps 704 mmHg 26%
    02:00 +23°C° 0 mm 1 mps 704 mmHg 27%
    03:00 +22°C° 0 mm 1 mps 704 mmHg 29%
    04:00 +22°C° 0 mm 1 mps 704 mmHg 30%
    05:00 +23°C° 0 mm 1 mps 705 mmHg 29%
    06:00 +24°C° 0 mm 1 mps 705 mmHg 27%
    07:00 +25°C° 0 mm 1 mps 706 mmHg 26%
    08:00 +28°C° 0 mm 2 mps 706 mmHg 22%
    09:00 +32°C° 0 mm 2 mps 707 mmHg 18%
    10:00 +36°C° 0 mm 2 mps 707 mmHg 14%
    11:00 +38°C° 0 mm 2 mps 706 mmHg 13%
    12:00 +40°C° 0 mm 2 mps 705 mmHg 12%
    13:00 +41°C° 0 mm 1 mps 704 mmHg 11%
    14:00 +41°C° 0 mm 1 mps 704 mmHg 11%
    15:00 +40°C° 0 mm 1 mps 703 mmHg 11%
    16:00 +39°C° 0 mm 1 mps 702 mmHg 11%
    17:00 +35°C° 0 mm 1 mps 702 mmHg 14%
    18:00 +31°C° 0 mm 1 mps 703 mmHg 17%
    19:00 +28°C° 0 mm 1 mps 703 mmHg 20%
    20:00 +27°C° 0 mm 1 mps 703 mmHg 21%
    21:00 +27°C° 0 mm 1 mps 703 mmHg 22%
    22:00 +26°C° 0 mm 1 mps 704 mmHg 23%
    23:00 +25°C° 0 mm 1 mps 704 mmHg 24%

    22 December, Saturday

    Time Temperature Precipitation Wind Pressure Humidity
    00:00 +24°C° 0 mm 1 mps 704 mmHg 25%
    01:00 +24°C° 0 mm 1 mps 703 mmHg 26%
    02:00 +23°C° 0 mm 1 mps 703 mmHg 27%
    03:00 +22°C° 0 mm 1 mps 704 mmHg 28%
    04:00 +21°C° 0 mm 1 mps 704 mmHg 29%
    05:00 +22°C° 0 mm 1 mps 704 mmHg 28%
    06:00 +23°C° 0 mm 1 mps 705 mmHg 27%
    07:00 +25°C° 0 mm 1 mps 705 mmHg 26%
    08:00 +28°C° 0 mm 1 mps 706 mmHg 22%
    09:00 +31°C° 0 mm 2 mps 706 mmHg 18%
    10:00 +36°C° 0 mm 2 mps 706 mmHg 14%
    11:00 +38°C° 0 mm 2 mps 705 mmHg 13%
    12:00 +39°C° 0 mm 1 mps 704 mmHg 12%
    13:00 +41°C° 0 mm 1 mps 704 mmHg 11%
    14:00 +40°C° 0 mm 1 mps 703 mmHg 11%
    15:00 +39°C° 0 mm 1 mps 703 mmHg 11%
    16:00 +39°C° 0 mm 1 mps 702 mmHg 12%
    17:00 +34°C° 0 mm 1 mps 702 mmHg 15%
    18:00 +31°C° 0 mm 1 mps 702 mmHg 18%
    19:00 +26°C° 0 mm 0 mps 703 mmHg 21%
    20:00 +25°C° 0 mm 0 mps 703 mmHg 22%
    21:00 +24°C° 0 mm 0 mps 703 mmHg 23%
    22:00 +24°C° 0 mm 0 mps 703 mmHg 24%
    23:00 +25°C° 0 mm 1 mps 703 mmHg 24%

    23 December, Sunday

    Time Temperature Precipitation Wind Pressure Humidity
    00:00 +25°C° 0 mm 1 mps 703 mmHg 25%
    01:00 +24°C° 0 mm 1 mps 703 mmHg 25%
    02:00 +23°C° 0 mm 1 mps 703 mmHg 27%
    03:00 +22°C° 0 mm 1 mps 703 mmHg 28%
    04:00 +21°C° 0 mm 1 mps 703 mmHg 30%
    05:00 +23°C° 0 mm 1 mps 704 mmHg 29%
    06:00 +24°C° 0 mm 1 mps 705 mmHg 28%
    07:00 +25°C° 0 mm 1 mps 706 mmHg 27%
    08:00 +28°C° 0 mm 1 mps 706 mmHg 23%
    09:00 +32°C° 0 mm 2 mps 706 mmHg 19%
    10:00 +36°C° 0 mm 2 mps 706 mmHg 15%
    11:00 +38°C° 0 mm 2 mps 705 mmHg 14%
    12:00 +39°C° 0 mm 2 mps 704 mmHg 13%
    13:00 +40°C° 0 mm 1 mps 703 mmHg 12%
    14:00 +40°C° 0 mm 1 mps 703 mmHg 12%
    15:00 +39°C° 0 mm 1 mps 703 mmHg 12%
    16:00 +37°C° 0 mm 1 mps 702 mmHg 13%
    17:00 +34°C° 0 mm 1 mps 702 mmHg 16%
    18:00 +31°C° 0 mm 1 mps 703 mmHg 19%
    19:00 +28°C° 0 mm 1 mps 703 mmHg 22%
    20:00 +28°C° 0 mm 1 mps 703 mmHg 23%
    21:00 +27°C° 0 mm 1 mps 703 mmHg 24%
    22:00 +26°C° 0 mm 1 mps 703 mmHg 25%
    23:00 +25°C° 0 mm 1 mps 703 mmHg 27%

    24 December, Monday

    Time Temperature Precipitation Wind Pressure Humidity
    00:00 +24°C° 0 mm 1 mps 703 mmHg 30%
    01:00 +23°C° 0 mm 1 mps 703 mmHg 32%
    02:00 +23°C° 0 mm 1 mps 703 mmHg 33%
    03:00 +23°C° 0 mm 1 mps 703 mmHg 33%
    04:00 +22°C° 0 mm 1 mps 703 mmHg 34%
    05:00 +23°C° 0 mm 1 mps 704 mmHg 31%
    06:00 +25°C° 0 mm 1 mps 704 mmHg 28%
    07:00 +26°C° 0 mm 1 mps 705 mmHg 26%
    08:00 +29°C° 0 mm 2 mps 705 mmHg 21%
    09:00 +32°C° 0 mm 2 mps 706 mmHg 17%
    10:00 +37°C° 0 mm 2 mps 706 mmHg 13%
    11:00 +38°C° 0 mm 2 mps 705 mmHg 12%
    12:00 +39°C° 0 mm 2 mps 704 mmHg 11%
    13:00 +41°C° 0 mm 2 mps 703 mmHg 11%
    14:00 +40°C° 0 mm 2 mps 703 mmHg 11%
    15:00 +39°C° 0 mm 2 mps 702 mmHg 12%
    16:00 +39°C° 0 mm 2 mps 702 mmHg 12%
    17:00 +35°C° 0 mm 1 mps 702 mmHg 15%
    18:00 +32°C° 0 mm 1 mps 702 mmHg 18%
    19:00 +29°C° 0 mm 1 mps 703 mmHg 21%
    20:00 +28°C° 0 mm 1 mps 703 mmHg 22%
    21:00 +27°C° 0 mm 1 mps 703 mmHg 23%
    22:00 +27°C° 0 mm 1 mps 703 mmHg 24%
    23:00 +26°C° 0 mm 1 mps 703 mmHg 25%
    Show more